Weather History for KUTS - October, 2012

Change the Weather History Date:

Saturday, October 20, 2012

  Actual Average (KCXO) Record (KCXO)
Temperature  
Mean Temperature 68 °F -  
Max Temperature 84 °F 77 °F 91 °F (2004)
Min Temperature 54 °F 54 °F 36 °F (2011)
Cooling Degree Days 3    
Growing Degree Days 18 (Base 50)    
Moisture  
Dew Point 56 °F    
Average Humidity 63    
Maximum Humidity 83    
Minimum Humidity 42    
Precipitation  
Precipitation 0.00 in - - ()
Sea Level Pressure  
Sea Level Pressure 29.89 in    
Wind  
Wind Speed 5 mph (South)    
Max Wind Speed 15 mph    
Max Gust Speed 22 mph    
Visibility 10 miles    
Events      
Averages and records for this station are not official NWS values.
T = Trace of Precipitation, MM = Missing Value Source: NWS Daily Summary

Daily Weather History Graph

Daily Weather History Graph

Search for Another Location

Airport or City:

Trip Planner

Search our weather history database for the weather conditions in past years. The results will help you decide how hot, cold, wet, or windy it might be!

Date:

Astronomy

Oct. 20, 2012 Rise Set
Actual Time 7:28 AM CDT 6:44 PM CDT
Civil Twilight 7:04 AM CDT 7:09 PM CDT
Nautical Twilight 6:36 AM CDT 7:37 PM CDT
Astronomical Twilight 6:08 AM CDT 8:05 PM CDT
Moon 12:53 PM CDT (10/20) 11:42 PM CDT (10/20)
Length of Visible Light 12h 05m
Length of Day
11h 16m
Waxing Crescent, 34% of the Moon is Illuminated
Oct 20
Waxing Crescent
Oct 21
First Quarter
Oct 29
Full
Nov 6
Last Quarter
Nov 13
New

Hourly Weather History & Observations

Time (CDT) Temp. Heat Index Dew Point Humidity Pressure Visibility Wind Dir Wind Speed Gust Speed Precip Events Conditions
12:53 AM 55.9 °F - 46.9 °F 72% 29.93 in 10.0 mi Calm Calm - N/A   Clear
1:53 AM 54.0 °F - 46.9 °F 77% 29.93 in 10.0 mi South 3.5 mph - N/A   Clear
2:53 AM 57.0 °F - 46.0 °F 67% 29.93 in 10.0 mi South 3.5 mph - N/A   Clear
3:53 AM 55.9 °F - 46.9 °F 72% 29.91 in 10.0 mi South 3.5 mph - N/A   Clear
4:53 AM 55.0 °F - 48.0 °F 77% 29.91 in 10.0 mi Calm Calm - N/A   Clear
5:53 AM 55.9 °F - 48.9 °F 77% 29.91 in 10.0 mi South 3.5 mph - N/A   Clear
6:53 AM 57.0 °F - 51.1 °F 81% 29.92 in 10.0 mi South 4.6 mph - N/A   Clear
7:53 AM 57.0 °F - 52.0 °F 83% 29.92 in 10.0 mi South 3.5 mph - N/A   Clear
8:53 AM 64.9 °F - 55.0 °F 70% 29.94 in 10.0 mi South 5.8 mph - N/A   Clear
9:53 AM 70.0 °F - 57.0 °F 63% 29.95 in 10.0 mi South 9.2 mph 16.1 mph N/A   Clear
10:53 AM 75.0 °F - 55.9 °F 51% 29.95 in 10.0 mi South 9.2 mph - N/A   Clear
11:53 AM 79.0 °F - 54.0 °F 42% 29.94 in 10.0 mi South 11.5 mph 19.6 mph N/A   Mostly Cloudy
12:53 PM 80.1 °F 80.2 °F 55.9 °F 43% 29.92 in 10.0 mi South 15.0 mph 21.9 mph N/A   Partly Cloudy
1:53 PM 82.0 °F 82.4 °F 60.1 °F 47% 29.88 in 10.0 mi South 15.0 mph 21.9 mph N/A   Clear
2:53 PM 82.0 °F 82.4 °F 60.1 °F 47% 29.86 in 10.0 mi South 11.5 mph 18.4 mph N/A   Scattered Clouds
3:53 PM 82.0 °F 83.0 °F 62.1 °F 51% 29.84 in 10.0 mi South 10.4 mph - N/A   Clear
4:53 PM 82.9 °F 83.3 °F 61.0 °F 47% 29.83 in 10.0 mi South 10.4 mph 20.7 mph N/A   Partly Cloudy
5:53 PM 82.0 °F 82.7 °F 61.0 °F 49% 29.83 in 10.0 mi SE 5.8 mph 19.6 mph N/A   Mostly Cloudy
6:53 PM 78.1 °F - 61.0 °F 56% 29.83 in 10.0 mi Variable 4.6 mph - N/A   Clear
7:53 PM 75.9 °F - 61.0 °F 60% 29.84 in 10.0 mi Variable 3.5 mph - N/A   Clear
8:53 PM 75.0 °F - 62.1 °F 64% 29.86 in 10.0 mi SSE 8.1 mph - N/A   Mostly Cloudy
9:53 PM 73.9 °F - 64.0 °F 71% 29.88 in 10.0 mi South 9.2 mph - N/A   Partly Cloudy
10:53 PM 73.9 °F - 64.9 °F 73% 29.88 in 10.0 mi South 6.9 mph - N/A   Partly Cloudy
11:08 PM 75.2 °F - 64.4 °F 69% 29.89 in 10.0 mi South 8.1 mph 17.3 mph N/A   Mostly Cloudy
11:53 PM 75.0 °F - 64.9 °F 71% 29.88 in 10.0 mi South 10.4 mph 18.4 mph N/A   Mostly Cloudy